Terminal Aerodrome Forecast
Issued by NWS Cleveland, OH

Home | Current Version | Previous Version | Graphics & Text | Print | Product List | Glossary On
Versions: 1 2 3 4 5 6 7 8 9 10 11 12 13 14 15 16 17 18 19 20
000
FTUS41 KCLE 151100
TAFTOL
TAF
KTOL 151120Z 1512/1612 00000KT P6SM FEW100
     FM151300 22005KT P6SM SCT100 BKN250
     FM151700 23008KT P6SM SCT045 OVC080
     FM151900 25008KT P6SM -RA OVC045
     FM152200 27008KT 4SM -RA BR OVC030
     FM160400 32004KT 4SM BR OVC015
     FM160600 32007KT P6SM OVC015=

USA.gov is the U.S. government's official web portal to all federal, state and local government web resources and services.